Regional Weather Roundup
Issued by NWS

Home | Current Version | Previous Version | Text Only | Print | Product List | Glossary On
Versions: 1 2 3 4 5 6 7 8 9 10 11 12 13 14 15 16 17 18 19 20 21 22 23 24 25 26 27 28 29 30 31 32 33 34 35 36 37 38 39 40 41 42 43 44 45 46 47 48 49 50
713
ASUS44 KMEG 072310
RWRTN
TENNESSEE HOURLY STATE WEATHER ROUNDUP
NATIONAL WEATHER SERVICE MEMPHIS TN
500 PM CST SUN FEB 07 2016

TNZ002-004-019-021-049-052-054-088>092-080000-
WEST TENNESSEE

CITY           SKY/WX    TMP DP  RH WIND       PRES   REMARKS
MEMPHIS INTL   MOCLDY    57  30  35 SW14      30.01F
NWS MEMPHIS      N/A     55 N/A N/A MISG        N/A
JACKSON        PTCLDY    54  26  34 SW9       29.99F
DYERSBURG      PTCLDY    54  28  37 SW17      29.99F
UNION CITY     CLEAR     54  32  43 SW8       29.96S
PARIS          CLEAR     52  25  35 SW14      29.96S
$$

TNZ008-025-027-028-033-062-065-066-080000-
NORTH MIDDLE TENNESSEE

CITY           SKY/WX    TMP DP  RH WIND       PRES   REMARKS
NASHVILLE      MOCLDY    54  14  20 SW7       29.97F
CLARKSVILLE    PTCLDY    53  22  29 SW8       29.94F
SMYRNA         MOCLDY    54  20  26 SW7       29.98F
COOKEVILLE     CLEAR     46  27  46 SW3       29.96F
CROSSVILLE     CLOUDY    47  18  31 W7        29.97F
$$

TNZ061-075-076-078-094-096-097-080000-
SOUTH MIDDLE TENNESSEE

CITY           SKY/WX    TMP DP  RH WIND       PRES   REMARKS
FAYETTEVILLE   CLEAR     50  21  32 SW7       29.99F
TULLAHOMA      CLEAR     48  18  29 SW8       29.99F
WINCHESTER     CLEAR     48  23  37 SW7       30.00F
MCMINNVILLE    CLEAR     48  23  37 SW5       29.98F
COLUMBIA       CLEAR     54  23  30 W6        29.97S
SHELBYVILLE    CLEAR     54  21  28 SW8       29.99F
$$

TNZ017-018-042-046-047-080000-
NORTHEAST TENNESSEE

CITY           SKY/WX    TMP DP  RH WIND       PRES   REMARKS
TRI CITIES     PTCLDY    45  22  40 SW7       29.94F
$$

TNZ012-013-036-069-073-074-080000-
CENTRAL EAST TENNESSEE

CITY           SKY/WX    TMP DP  RH WIND       PRES   REMARKS
KNOXVILLE      CLEAR     47  23  38 SW6       29.97F
OAK RIDGE      CLEAR     51  22  31 S5        29.98S
GATLINBURG     CLEAR     48  19  32 CALM      29.97S
MORRISTOWN     CLEAR     48  23  37 SW6       29.95F
$$

TNZ083-085-099-080000-
SOUTHEAST TENNESSEE

CITY           SKY/WX    TMP DP  RH WIND       PRES   REMARKS
CHATTANOOGA    MOCLDY    54  18  24 W7        30.00S
$$

SKY/WX REPORTED AS FAIR MEANS FEW OR NO CLOUDS BELOW
12 THOUSAND FEET.





USA.gov is the U.S. government's official web portal to all federal, state and local government web resources and services.